[[{"header":{"parameterUnit":"m.s-1","parameterCategory":1,"la1":30.2992,"la2":30.254,"lo1":-89.0895,"lo2":-89.0443,"dy":0.0025,"dx":0.0025,"nx":19,"ny":19,"refTime":"2026-03-14T09:00:00:Z","depth":0,"parameterNumber":2,"parameterNumberName":"U-component_of_WINDS"},"data":[0,0,0,-1.4522,-1.4524,-1.4635,-1.4635,-1.4767,-1.4768,0,0,0,0,0,0,0,0,0,0,0,-1.4484,-1.4485,-1.4522,-1.4525,-1.4635,-1.4635,-1.4766,-1.4768,0,0,0,0,0,0,0,0,0,0,0,-1.4484,-1.4484,-1.4485,-1.4525,-1.4635,-1.4635,-1.4766,-1.4686,0,0,0,0,0,0,0,0,0,0,-1.4581,-1.454,-1.4484,-1.4485,-1.4526,-1.4634,-1.4635,-1.4683,-1.4691,-1.4713,0,-1.473,0,-1.4751,-1.4776,-1.4776,0,0,0,-1.4529,-1.4533,-1.4568,-1.4485,-1.4527,-1.4634,-1.4586,-1.4688,-1.4697,-1.4724,-1.4732,-1.4737,-1.4753,-1.4777,-1.4777,-1.4886,-1.4886,0,0,-1.4523,-1.4501,-1.4561,-1.4574,-1.4556,-1.4583,-1.459,-1.4694,-1.4701,-1.4733,-1.4741,-1.4755,-1.4778,-1.4779,-1.4885,-1.4886,0,0,0,-1.4502,-1.4496,-1.4529,-1.4568,-1.4589,-1.4586,-1.4594,-1.4697,-1.4709,-1.4742,-1.4757,-1.4778,-1.478,-1.4885,-1.4886,-1.4879,0,0,0,-1.4499,-1.4485,-1.4526,-1.4514,-1.4587,-1.4644,-1.4594,-1.4702,-1.4714,-1.4756,-1.4778,-1.4781,-1.4885,-1.4885,-1.4878,-1.4879,0,0,0,-1.4479,-1.4482,-1.4496,-1.4512,-1.4559,-1.4643,-1.4661,-1.4705,-1.4723,-1.4777,-1.4781,-1.4885,-1.4885,-1.4878,-1.4878,-1.49,0,0,0,-1.4451,-1.449,-1.4496,-1.4545,-1.4558,-1.4638,-1.4661,-1.4722,-1.4767,-1.4779,-1.4885,-1.4886,-1.4878,-1.4878,-1.4899,-1.4913,-1.4917,0,0,-1.4487,-1.4493,-1.4524,-1.4533,-1.4606,-1.4623,-1.4696,-1.4758,-1.4783,-1.485,-1.4853,-1.4878,-1.4878,-1.49,-1.495,-1.4953,0,0,0,-1.4528,-1.4549,-1.4573,-1.4615,-1.4663,-1.4704,-1.4758,-1.4781,-1.4838,-1.4813,-1.4893,-1.4894,-1.4907,-1.4915,-1.4918,-1.493,-1.4888,-1.4888,-1.4888,-1.4548,-1.4578,-1.463,-1.4672,-1.4712,-1.4767,-1.4802,-1.4842,-1.4861,-1.4879,-1.4899,-1.4926,-1.4934,-1.4936,-1.4949,-1.491,-1.491,-1.491,-1.491,-1.4603,-1.4638,-1.4661,-1.472,-1.4751,-1.4801,-1.4854,-1.4866,-1.4916,-1.4914,-1.4927,-1.4921,-1.4939,-1.4951,-1.491,-1.491,-1.491,-1.491,-1.491,-1.4619,-1.464,-1.4667,-1.4729,-1.4774,-1.4817,-1.4863,-1.4891,-1.4917,-1.493,-1.4953,-1.4953,-1.4955,-1.4939,-1.4939,-1.4939,-1.4939,-1.494,-1.494,-1.4623,-1.4654,-1.469,-1.4744,-1.4773,-1.4816,-1.487,-1.49,-1.494,-1.4956,-1.4957,-1.4973,-1.4935,-1.4924,-1.4941,-1.4941,-1.4941,-1.4941,-1.494,-1.4666,-1.4661,-1.4716,-1.4746,-1.481,-1.4852,-1.4886,-1.4945,-1.4973,-1.4995,-1.5009,-1.4977,-1.4985,-1.4983,-1.4974,-1.5003,-1.5003,-1.5003,-1.5003,-1.4678,-1.4685,-1.4747,-1.4792,-1.484,-1.4876,-1.4937,-1.4979,-1.5022,-1.5042,-1.5042,-1.5033,-1.503,-1.5039,-1.5036,-1.5028,-1.507,-1.507,-1.507,-1.4706,-1.4718,-1.4765,-1.4806,-1.4858,-1.4902,-1.496,-1.5011,-1.5059,-1.5074,-1.5057,-1.5054,-1.504,-1.5034,-1.5047,-1.5042,-1.5028,0,0]},{"header":{"parameterUnit":"m.s-1","parameterCategory":1,"la1":30.2992,"la2":30.254,"lo1":-89.0895,"lo2":-89.0443,"dy":0.0025,"dx":0.0025,"nx":19,"ny":19,"refTime":"2026-03-14T09:00:00:Z","depth":0,"parameterNumber":3,"parameterNumberName":"V-component_of_WINDS"},"data":[0,0,0,1.8882,1.8884,1.8982,1.8982,1.9115,1.9116,0,0,0,0,0,0,0,0,0,0,0,1.886,1.8861,1.8882,1.8884,1.8982,1.8982,1.9114,1.9116,0,0,0,0,0,0,0,0,0,0,0,1.8859,1.886,1.8862,1.8885,1.8982,1.8983,1.9114,1.9037,0,0,0,0,0,0,0,0,0,0,1.894,1.8928,1.886,1.8862,1.8885,1.8982,1.8983,1.9033,1.9042,1.9074,0,1.9107,0,1.9114,1.9126,1.9126,0,0,0,1.8878,1.892,1.8941,1.8862,1.8886,1.8982,1.8936,1.9038,1.9048,1.9086,1.9109,1.9113,1.9116,1.9126,1.9127,1.9337,1.9338,0,0,1.8873,1.888,1.8934,1.8948,1.8936,1.8933,1.8939,1.9044,1.9069,1.9109,1.9116,1.9118,1.9127,1.9129,1.9336,1.9337,0,0,0,1.8861,1.8877,1.8894,1.8942,1.896,1.8936,1.8943,1.9064,1.9069,1.9118,1.912,1.9128,1.913,1.9335,1.9337,1.9406,0,0,0,1.8858,1.887,1.8892,1.8898,1.8958,1.9014,1.8961,1.9062,1.9073,1.9119,1.9128,1.9131,1.9333,1.9336,1.9401,1.9437,0,0,0,1.8851,1.8869,1.8886,1.8898,1.8941,1.9012,1.9023,1.9064,1.9075,1.9126,1.9132,1.9332,1.9335,1.9397,1.943,1.9493,0,0,0,1.8845,1.8946,1.8887,1.9001,1.894,1.9055,1.9022,1.9107,1.9159,1.9129,1.9333,1.9336,1.9395,1.9425,1.9489,1.9547,1.9573,0,0,1.8977,1.8962,1.9028,1.8979,1.9106,1.9039,1.9176,1.9216,1.9213,1.9295,1.93,1.9403,1.9429,1.9492,1.9717,1.9737,0,0,0,1.9072,1.912,1.9152,1.9203,1.9237,1.9268,1.9287,1.9301,1.9371,1.9258,1.9443,1.9459,1.9495,1.9523,1.954,1.957,1.935,1.935,1.9349,1.9269,1.9261,1.9369,1.9372,1.9422,1.944,1.9478,1.95,1.9477,1.952,1.9545,1.9682,1.9715,1.9728,1.9759,1.9576,1.9576,1.9577,1.9577,1.946,1.9525,1.9492,1.9585,1.9575,1.9652,1.9672,1.9652,1.9721,1.9663,1.9695,1.9632,1.9751,1.9777,1.9582,1.9581,1.958,1.958,1.9579,1.9587,1.9616,1.9633,1.9705,1.9761,1.976,1.9827,1.9815,1.9804,1.9836,1.9859,1.9857,1.9853,1.9848,1.9848,1.9849,1.9849,1.985,1.985,1.9711,1.9728,1.9787,1.9831,1.9862,1.99,1.9918,1.9946,1.9974,1.996,1.996,1.9931,1.9765,1.9722,1.9857,1.9856,1.9855,1.9854,1.9854,1.9906,1.986,1.9951,1.9982,2.0031,2.0086,2.007,2.0129,2.0151,2.0184,2.0148,2.0028,2.0011,1.9998,1.9962,2.0151,2.0151,2.0151,2.0151,2.0011,2.0003,2.0093,2.0142,2.0189,2.0183,2.0284,2.0298,2.0305,2.0317,2.0288,2.0241,2.0227,2.0219,2.02,2.0167,2.0404,2.0404,2.0404,2.013,2.0125,2.0214,2.0222,2.0259,2.0291,2.0385,2.044,2.0438,2.0414,2.0326,2.0315,2.0239,2.0214,2.0187,2.0159,2.0097,0,0]}]]